FW4081 Weather Reports


Display with metric or nautical units.
time (UTC)temp
F
wind
direction
speed
MPH
gust
MPH
rain 1hr
in
rain 24hr
in
rain mn
in
humidity
%
barometer
mb
20200405103736 36 90 8.0 8.0 0.00 0.06 0.00 87 849.6
20200405103242 36 68 8.0 11.0 0.00 0.06 0.00 87 849.6
20200405102736 35 113 5.0 5.0 0.00 0.06 0.00 87 849.6
20200405102240 35 45 10.0 10.0 0.00 0.06 0.00 87 849.6
20200405101735 35 68 9.0 9.0 0.00 0.06 0.00 88 849.6
20200405101235 35 68 7.0 7.0 0.00 0.06 0.00 88 849.6
20200405100739 35 90 8.0 8.0 0.00 0.06 0.00 88 849.6
20200405100243 35 68 9.0 9.0 0.00 0.06 0.00 88 849.6
20200405095738 35 90 9.0 9.0 0.00 0.06 0.00 88 849.6
20200405095239 35 90 6.0 6.0 0.00 0.06 0.00 88 850.0
20200405094736 35 68 7.0 11.0 0.00 0.06 0.00 88 850.0
20200405094240 35 45 7.0 7.0 0.00 0.06 0.00 88 850.0
20200405093734 35 45 9.0 9.0 0.00 0.06 0.00 88 850.0
20200405093237 35 68 9.0 9.0 0.00 0.06 0.00 88 850.0
20200405092735 35 45 9.0 9.0 0.00 0.06 0.00 88 850.0
20200405092233 35 90 6.0 6.0 0.00 0.06 0.00 88 850.0
20200405091711 35 23 8.0 14.0 0.00 0.06 0.00 88 850.3
20200405091210 35 113 6.0 10.0 0.00 0.06 0.00 88 850.0
20200405090712 35 135 7.0 10.0 0.00 0.06 0.00 87 850.3
20200405090211 36 113 9.0 10.0 0.00 0.06 0.00 86 850.3
20200405085711 36 113 6.0 11.0 0.00 0.06 0.00 86 850.3
20200405085212 36 113 8.0 11.0 0.00 0.06 0.00 86 850.3
20200405084712 36 68 10.0 10.0 0.00 0.06 0.00 87 850.3
20200405084211 36 90 13.0 13.0 0.00 0.06 0.00 87 850.3
20200405083712 36 68 9.0 13.0 0.00 0.06 0.00 87 850.3
20200405083213 35 113 10.0 12.0 0.00 0.06 0.00 88 850.3
20200405082708 35 90 12.0 12.0 0.00 0.06 0.00 88 850.3
20200405082208 35 113 11.0 11.0 0.00 0.06 0.00 88 850.3
20200405081640 35 113 8.0 10.0 0.00 0.06 0.00 88 850.3
20200405081139 35 113 4.0 7.0 0.00 0.06 0.00 88 850.3
20200405080633 35 113 8.0 8.0 0.00 0.06 0.00 88 850.3
20200405080140 35 68 5.0 8.0 0.00 0.06 0.00 88 850.7
20200405075639 35 90 6.0 10.0 0.00 0.06 0.00 88 850.7
20200405075134 35 135 8.0 10.0 0.00 0.06 0.00 88 850.7
20200405074635 36 68 9.0 10.0 0.00 0.06 0.00 87 850.7
20200405074136 36 113 8.0 14.0 0.00 0.06 0.00 86 850.7
20200405073635 36 180 6.0 10.0 0.00 0.06 0.00 85 850.7
20200405073134 36 135 11.0 12.0 0.00 0.06 0.00 85 850.7
20200405072634 36 158 6.0 15.0 0.00 0.06 0.00 85 850.7
20200405072135 36 90 7.0 9.0 0.00 0.06 0.00 85 851.0
20200405071639 36 135 10.0 10.0 0.00 0.06 0.00 85 850.7
20200405071138 36 113 6.0 8.0 0.00 0.06 0.00 84 850.7
20200405070636 36 90 9.0 9.0 0.00 0.06 0.00 83 850.7
20200405070137 37 68 10.0 10.0 0.00 0.06 0.00 83 850.7
20200405065634 37 90 6.0 9.0 0.00 0.06 0.06 81 850.7
20200405065137 37 90 7.0 10.0 0.00 0.06 0.06 81 851.0
20200405064638 37 135 8.0 8.0 0.00 0.06 0.06 81 851.0
20200405064136 37 68 5.0 8.0 0.00 0.06 0.06 81 851.0
20200405063638 37 113 4.0 9.0 0.00 0.06 0.06 81 851.0
20200405063136 37 90 6.0 7.0 0.00 0.06 0.06 81 851.0
20200405062636 37 45 5.0 8.0 0.00 0.06 0.06 81 851.0
20200405062135 37 90 6.0 6.0 0.00 0.06 0.06 82 851.0
20200405061611 37 90 7.0 7.0 0.00 0.06 0.06 82 851.0
20200405061108 37 113 5.0 9.0 0.00 0.06 0.06 82 851.0
20200405060609 37 45 4.0 7.0 0.00 0.06 0.06 82 851.0
20200405060112 37 90 2.0 6.0 0.00 0.06 0.06 82 851.0
20200405054510 37 45 6.0 6.0 0.00 0.06 0.06 82 851.0
20200405054012 37 135 9.0 9.0 0.00 0.06 0.06 82 851.0
20200405053512 37 90 7.0 8.0 0.00 0.06 0.06 82 851.3
20200405053013 37 180 7.0 12.0 0.00 0.06 0.06 82 851.3
20200405052509 36 68 8.0 8.0 0.00 0.06 0.06 82 851.3
20200405052009 36 113 4.0 8.0 0.00 0.06 0.06 82 851.3
20200405051510 36 90 6.0 7.0 0.00 0.06 0.06 82 851.3
20200405051010 36 45 5.0 9.0 0.00 0.06 0.06 82 851.3
20200405050510 36 68 5.0 9.0 0.00 0.06 0.06 82 851.3
20200405050010 36 180 7.0 10.0 0.00 0.06 0.06 82 851.3
20200405045439 36 45 6.0 8.0 0.00 0.06 0.06 82 851.3
20200405045012 36 135 4.0 5.0 0.00 0.06 0.06 81 851.3
20200405044512 36 90 6.0 7.0 0.00 0.06 0.06 81 851.3
20200405044012 36 23 8.0 10.0 0.00 0.06 0.06 81 851.7
20200405043511 36 113 7.0 9.0 0.00 0.06 0.06 81 851.7
20200405043010 36 113 5.0 6.0 0.00 0.06 0.06 81 851.3
20200405042510 36 113 5.0 6.0 0.00 0.06 0.06 81 851.7
20200405042010 36 23 6.0 7.0 0.00 0.06 0.06 81 851.7
20200405041512 36 203 3.0 6.0 0.00 0.06 0.06 81 851.7
20200405041012 36 113 5.0 8.0 0.00 0.06 0.06 81 851.3
20200405040512 36 113 2.0 5.0 0.00 0.06 0.06 80 851.3
20200405040015 36 68 4.0 5.0 0.00 0.06 0.06 80 851.3
20200405035515 36 180 6.0 9.0 0.00 0.06 0.06 80 851.3
20200405035013 36 113 6.0 6.0 0.00 0.06 0.06 80 851.3
20200405034512 36 158 6.0 7.0 0.00 0.06 0.06 79 851.3
20200405034010 36 180 9.0 9.0 0.00 0.06 0.06 79 851.3
20200405033515 36 158 8.0 8.0 0.00 0.06 0.06 79 851.3
20200405033012 36 113 4.0 7.0 0.00 0.06 0.06 79 851.3
20200405032519 37 90 4.0 7.0 0.00 0.06 0.06 79 851.3
20200405032014 37 113 5.0 6.0 0.00 0.06 0.06 79 851.3
20200405031511 37 113 4.0 6.0 0.00 0.06 0.06 78 851.3
20200405031014 37 90 5.0 8.0 0.00 0.06 0.06 78 851.3
20200405030513 37 90 5.0 7.0 0.00 0.06 0.06 78 851.3
20200405030013 38 135 8.0 10.0 0.00 0.06 0.06 78 851.3
20200405025513 38 113 4.0 7.0 0.00 0.06 0.06 78 851.7
20200405025016 38 90 2.0 9.0 0.00 0.06 0.06 78 851.7
20200405024519 38 68 3.0 7.0 0.00 0.06 0.06 79 851.3
20200405024018 38 158 3.0 7.0 0.00 0.06 0.06 79 851.3
20200405023513 38 45 4.0 9.0 0.00 0.06 0.06 78 851.3
20200405023017 38 135 5.0 9.0 0.00 0.06 0.06 77 851.3
20200405022513 39 158 3.0 7.0 0.00 0.06 0.06 77 851.7
20200405022014 39 113 7.0 8.0 0.00 0.06 0.06 77 851.7
20200405021513 39 113 9.0 9.0 0.00 0.06 0.06 77 851.7
20200405021012 39 180 4.0 11.0 0.00 0.06 0.06 76 851.3
20200405020515 39 248 11.0 11.0 0.00 0.06 0.06 76 851.3
20200405020017 39 180 5.0 9.0 0.00 0.06 0.06 76 851.3
20200405015512 40 135 6.0 9.0 0.00 0.06 0.06 75 851.7
20200405015014 40 158 8.0 8.0 0.00 0.06 0.06 74 851.7
20200405014512 41 68 7.0 9.0 0.00 0.06 0.06 73 851.7
20200405014013 41 113 11.0 12.0 0.00 0.06 0.06 71 851.7
20200405013510 42 113 8.0 9.0 0.00 0.06 0.06 71 851.7
20200405013012 43 68 11.0 11.0 0.00 0.06 0.06 70 851.7
20200405012513 42 68 8.0 13.0 0.00 0.06 0.06 71 851.7
20200405012012 43 90 10.0 10.0 0.00 0.06 0.06 72 851.7
20200405011511 44 135 7.0 12.0 0.00 0.06 0.06 73 851.7
20200405011015 43 90 6.0 12.0 0.00 0.06 0.06 72 851.7
20200405010518 43 113 7.0 9.0 0.00 0.06 0.06 72 851.7
20200405010015 42 203 11.0 14.0 0.00 0.06 0.06 71 851.7
20200405005518 44 113 12.0 12.0 0.00 0.06 0.06 71 851.7
20200405005019 43 113 9.0 10.0 0.00 0.06 0.06 73 851.7
20200405004518 44 180 11.0 11.0 0.00 0.06 0.06 74 852.0
20200405004016 42 90 7.0 11.0 0.00 0.06 0.06 79 852.0
20200405003517 42 225 9.0 12.0 0.00 0.06 0.06 81 852.0
20200405003013 39 248 8.0 10.0 0.00 0.06 0.06 86 852.0
20200405002515 38 113 10.0 12.0 0.00 0.06 0.06 86 852.0
20200405002011 39 113 11.0 11.0 0.00 0.06 0.06 86 852.0
20200405001516 40 135 11.0 14.0 0.00 0.06 0.06 86 852.0
20200405001012 38 113 14.0 14.0 0.00 0.06 0.06 85 852.4
20200405000517 38 113 7.0 10.0 0.00 0.06 0.06 87 852.0
20200405000013 37 135 12.0 15.0 0.00 0.06 0.06 87 852.4
20200404235512 37 225 9.0 14.0 0.00 0.06 0.06 87 852.4
20200404235013 37 90 10.0 17.0 0.00 0.06 0.06 87 852.4
20200404234512 37 113 12.0 13.0 0.00 0.06 0.06 88 852.4
20200404234014 37 113 9.0 14.0 0.00 0.06 0.06 89 852.4
20200404233511 36 135 4.0 4.0 0.00 0.06 0.06 91 852.4
20200404233012 35 203 4.0 6.0 0.00 0.06 0.06 90 852.4
20200404232513 36 203 3.0 5.0 0.00 0.06 0.06 89 852.4
20200404232013 36 225 2.0 8.0 0.00 0.06 0.06 88 852.4
20200404231514 37 180 15.0 19.0 0.00 0.06 0.06 87 852.4
20200404231012 39 158 23.0 23.0 0.00 0.06 0.06 80 852.0
20200404230513 40 90 16.0 16.0 0.00 0.06 0.06 79 852.0
20200404230015 40 270 7.0 13.0 0.00 0.06 0.06 80 852.0
20200404225514 40 90 12.0 13.0 0.00 0.06 0.06 80 852.4
20200404225011 40 225 12.0 16.0 0.00 0.06 0.06 79 852.4
20200404224516 41 68 13.0 13.0 0.00 0.06 0.06 82 852.4
20200404224014 41 135 13.0 13.0 0.00 0.06 0.06 86 852.4
20200404223515 40 203 2.0 7.0 0.01 0.06 0.06 86 852.4
20200404223013 40 113 7.0 9.0 0.01 0.06 0.06 85 852.4
20200404222514 40 113 4.0 10.0 0.01 0.06 0.06 86 852.7
20200404222013 40 113 5.0 8.0 0.01 0.06 0.06 88 852.7
20200404221514 41 90 7.0 7.0 0.01 0.06 0.06 90 852.7
20200404221012 41 90 4.0 4.0 0.02 0.06 0.06 90 852.7
20200404220512 41 113 3.0 4.0 0.02 0.06 0.06 93 852.7
20200404220015 39 68 0.0 3.0 0.02 0.06 0.06 91 853.0
20200404215516 39 113 2.0 3.0 0.03 0.06 0.06 92 853.0
20200404215014 38 113 2.0 5.0 0.03 0.06 0.06 97 853.4
20200404214513 39 113 0.0 1.0 0.03 0.06 0.06 98 853.4
20200404214011 38 113 0.0 1.0 0.03 0.06 0.06 98 853.4
20200404213514 37 68 3.0 3.0 0.03 0.06 0.06 98 853.0
20200404213014 36 113 2.0 3.0 0.02 0.05 0.05 98 853.4
20200404212440 35 45 2.0 3.0 0.02 0.05 0.05 98 853.4
20200404211940 34 23 1.0 4.0 0.02 0.05 0.05 98 853.7
20200404211435 34 68 3.0 4.0 0.02 0.05 0.05 98 853.7
20200404210940 34 68 4.0 4.0 0.01 0.04 0.04 98 853.7
20200404210434 33 135 3.0 3.0 0.01 0.04 0.04 98 853.4
20200404205939 33 113 1.0 4.0 0.01 0.04 0.04 98 853.4
20200404205443 33 158 3.0 3.0 0.00 0.03 0.03 98 853.7
20200404204937 33 135 3.0 3.0 0.00 0.03 0.03 98 853.7
20200404204439 33 158 2.0 4.0 0.00 0.03 0.03 98 853.7
20200404203937 33 113 5.0 5.0 0.00 0.03 0.03 98 853.7
20200404203441 32 0 2.0 3.0 0.00 0.03 0.03 98 854.0
20200404202939 32 113 4.0 4.0 0.00 0.03 0.03 98 854.0
20200404202434 32 90 2.0 4.0 0.01 0.03 0.03 98 854.0
20200404201939 32 135 4.0 5.0 0.01 0.03 0.03 98 854.0
20200404201435 32 90 3.0 5.0 0.01 0.03 0.03 98 854.4
20200404200937 32 113 5.0 7.0 0.01 0.03 0.03 98 854.4
20200404200435 32 113 8.0 9.0 0.01 0.03 0.03 98 854.4
20200404195937 32 90 8.0 9.0 0.01 0.03 0.03 98 854.4
20200404195439 32 113 9.0 10.0 0.01 0.03 0.03 98 854.4
20200404194941 32 113 9.0 9.0 0.01 0.03 0.03 98 854.4
20200404194437 32 90 6.0 8.0 0.01 0.03 0.03 97 854.4
20200404193937 32 90 8.0 10.0 0.02 0.03 0.03 97 854.4
20200404193440 33 113 5.0 9.0 0.02 0.03 0.03 97 854.4
20200404192939 33 113 7.0 10.0 0.02 0.03 0.03 97 854.7
20200404192442 33 68 9.0 9.0 0.02 0.03 0.03 97 854.7
20200404191934 33 158 12.0 12.0 0.01 0.02 0.02 96 854.7
20200404191443 33 68 7.0 9.0 0.01 0.02 0.02 96 854.7
20200404190942 33 113 10.0 12.0 0.01 0.02 0.02 93 854.4
20200404190439 34 68 9.0 9.0 0.01 0.02 0.02 92 854.7
20200404185939 34 90 4.0 4.0 0.01 0.02 0.02 92 854.7
20200404185435 35 45 4.0 6.0 0.02 0.02 0.02 91 854.7
20200404184913 36 68 6.0 6.0 0.02 0.02 0.02 90 854.7
20200404184409 36 45 6.0 7.0 0.02 0.02 0.02 89 854.4
20200404183913 36 135 4.0 6.0 0.01 0.01 0.01 89 854.4
20200404183342 36 45 4.0 5.0 0.01 0.01 0.01 89 854.7
20200404182813 36 68 7.0 7.0 0.01 0.01 0.01 88 854.4
20200404182310 36 68 9.0 9.0 0.01 0.01 0.01 88 854.7
20200404181825 36 68 4.0 7.0 0.01 0.01 0.01 88 854.7
20200404181239 35 45 10.0 10.0 0.01 0.01 0.01 89 854.7
20200404180740 35 68 5.0 5.0 0.01 0.01 0.01 89 854.7
20200404180239 35 68 5.0 10.0 0.01 0.01 0.01 89 855.1
20200404175737 35 90 7.0 7.0 0.01 0.01 0.01 88 855.1
20200404175241 36 68 6.0 6.0 0.00 0.00 0.00 87 855.1
20200404174737 36 68 3.0 3.0 0.00 0.00 0.00 87 854.7
20200404174236 36 68 8.0 8.0 0.00 0.00 0.00 88 855.1
20200404173740 35 225 1.0 1.0 0.00 0.00 0.00 91 855.1
20200404173220 35 135 1.0 6.0 0.00 0.00 0.00 91 855.1
20200404171720 34 113 6.0 12.0 0.00 0.00 0.00 89 855.1
20200404170929 34 90 3.0 5.0 0.00 0.00 0.00 90 855.1
20200404170416 33 90 6.0 6.0 0.00 0.00 0.00 90 855.1
20200404165314 33 23 6.0 6.0 0.00 0.00 0.00 90 855.4
20200404164718 33 68 8.0 8.0 0.00 0.00 0.00 91 855.4
20200404164054 32 113 2.0 6.0 0.00 0.00 0.00 91 855.4
20200404162812 32 225 5.0 5.0 0.00 0.00 0.00 91 855.4
20200404162315 32 23 3.0 4.0 0.00 0.00 0.00 91 855.7
20200404161813 32 113 1.0 3.0 0.00 0.00 0.00 91 855.7
20200404161311 32 68 2.0 3.0 0.00 0.00 0.00 91 855.7
20200404160812 31 158 4.0 4.0 0.00 0.00 0.00 91 855.7
20200404160314 31 90 4.0 5.0 0.00 0.00 0.00 91 856.1
20200404155741 31 113 4.0 4.0 0.00 0.00 0.00 91 856.1
20200404155239 32 90 4.0 4.0 0.00 0.00 0.00 90 856.1
20200404154738 32 113 5.0 5.0 0.00 0.00 0.00 89 856.1
20200404154238 32 135 4.0 4.0 0.00 0.00 0.00 88 856.1
20200404153740 33 113 6.0 6.0 0.00 0.00 0.00 83 856.1
20200404153235 33 113 3.0 3.0 0.00 0.00 0.00 78 856.1
20200404152738 33 113 0.0 0.0 0.00 0.00 0.00 78 856.1
20200404152236 32 113 1.0 4.0 0.00 0.00 0.00 79 856.1
20200404151737 32 203 0.0 0.0 0.00 0.00 0.00 81 856.1
20200404151238 31 45 2.0 2.0 0.00 0.00 0.00 83 856.1
20200404150736 31 90 0.0 0.0 0.00 0.00 0.00 81 856.1
20200404150236 30 270 0.0 0.0 0.00 0.00 0.00 85 856.4
20200404145739 30 113 0.0 0.0 0.00 0.00 0.00 85 856.1
20200404145245 30 203 0.0 0.0 0.00 0.00 0.00 85 856.1
20200404144741 30 203 1.0 1.0 0.00 0.00 0.00 84 856.1
20200404144237 30 180 0.0 0.0 0.00 0.00 0.00 84 856.1
20200404143737 30 68 0.0 0.0 0.00 0.00 0.00 84 856.1
20200404143235 30 113 0.0 0.0 0.00 0.00 0.00 84 856.1
20200404142741 30 90 0.0 0.0 0.00 0.00 0.00 84 856.1
20200404142235 30 203 0.0 0.0 0.00 0.00 0.00 83 856.1
20200404141714 31 135 0.0 2.0 0.00 0.00 0.00 79 856.1
20200404141211 31 315 2.0 4.0 0.00 0.00 0.00 80 856.1
20200404140712 30 293 2.0 2.0 0.00 0.00 0.00 84 856.4
20200404140209 29 45 0.0 0.0 0.00 0.00 0.00 84 856.4
20200404135710 29 90 0.0 0.0 0.00 0.00 0.00 84 856.4
20200404135211 29 90 0.0 0.0 0.00 0.00 0.00 84 856.1
20200404134710 29 90 0.0 1.0 0.00 0.00 0.00 84 856.4
20200404134212 30 68 0.0 0.0 0.00 0.00 0.00 83 856.4
20200404133712 30 113 0.0 0.0 0.00 0.00 0.00 82 856.4
20200404133210 31 270 0.0 0.0 0.00 0.00 0.00 79 856.4
20200404132712 30 293 0.0 2.0 0.00 0.00 0.00 82 856.4
20200404132212 30 45 2.0 3.0 0.00 0.00 0.00 83 856.4
20200404131710 29 23 1.0 2.0 0.00 0.00 0.00 84 856.8
20200404131209 29 203 0.0 0.0 0.00 0.00 0.00 83 856.8
20200404130713 29 90 0.0 0.0 0.00 0.00 0.00 83 856.8
20200404130212 29 203 0.0 2.0 0.00 0.00 0.00 83 856.8
20200404125708 30 203 0.0 0.0 0.00 0.00 0.00 82 856.8
20200404125210 30 68 0.0 1.0 0.00 0.00 0.00 83 856.8
20200404124711 30 68 0.0 0.0 0.00 0.00 0.00 82 857.1
20200404124209 30 315 0.0 0.0 0.00 0.00 0.00 82 857.1
20200404123710 29 113 0.0 0.0 0.00 0.00 0.00 82 857.1
20200404123208 29 113 0.0 0.0 0.00 0.00 0.00 82 857.1
20200404122710 29 113 0.0 0.0 0.00 0.00 0.00 83 857.1
20200404122211 29 90 0.0 0.0 0.00 0.00 0.00 84 857.4
20200404121512 28 90 0.0 0.0 0.00 0.00 0.00 84 857.4
20200404121010 28 90 0.0 0.0 0.00 0.00 0.00 84 857.4
20200404120515 28 90 0.0 0.0 0.00 0.00 0.00 84 857.4
20200404120015 28 23 0.0 0.0 0.00 0.00 0.00 85 857.4
20200404115512 28 23 1.0 2.0 0.00 0.00 0.00 86 857.4
20200404115010 27 23 0.0 0.0 0.00 0.00 0.00 86 857.8
20200404114509 27 45 0.0 0.0 0.00 0.00 0.00 86 857.8
20200404114010 27 45 0.0 0.0 0.00 0.00 0.00 86 857.8
20200404113511 27 68 0.0 0.0 0.00 0.00 0.00 85 857.8
20200404113011 27 113 0.0 0.0 0.00 0.00 0.00 85 857.8
20200404112509 27 90 0.0 0.0 0.00 0.00 0.00 85 858.1
20200404112011 27 90 0.0 0.0 0.00 0.00 0.00 85 858.1
20200404111512 28 90 0.0 0.0 0.00 0.00 0.00 85 858.1
20200404111014 28 135 0.0 0.0 0.00 0.00 0.00 85 858.1
20200404110510 28 68 0.0 0.0 0.00 0.00 0.00 85 858.4
20200404110014 28 90 0.0 0.0 0.00 0.00 0.00 85 858.4
20200404105511 28 68 0.0 0.0 0.00 0.00 0.00 85 858.4
20200404105013 28 90 0.0 0.0 0.00 0.00 0.00 85 858.4
20200404104512 28 90 0.0 0.0 0.00 0.00 0.00 85 858.4